Location: Eisingen in Unterfranken
(49.7591°N, 9.8347°E)
Time: 00:20:12
(UTC+01:00)

BlueWalker 3 - Pass Details

Date: 28 November 2022
Orbit: 499 x 517 km, 53.2° (Epoch: 04 February)

Event Time Altitude Azimuth Distance (km) Brightness Sun altitude
Rises 18:14:07 0° 255° (WSW) 2,625 7.4 -17.0°
Reaches altitude 10° 18:16:20 10° 258° (WSW) 1,737 6.0 -17.4°
Maximum altitude 18:20:15 70° 342° (NNW) 547 2.0 -18.0°
Enters shadow 18:21:23 43° 52° (NE) 723 2.3 -18.2°
